Alamogordo, NM

4:41 PM MDT on June 15, 2019 (GMT -0600)
Alamogordo-White Sands Regional

Weather History for KALM - May, 2019

Change the Weather History Date:

Sunday, May 19, 2019

  Actual Average Record
Temperature  
Mean Temperature 64 °F -  
Max Temperature 80 °F 86 °F 98 °F (2004)
Min Temperature 48 °F 56 °F 38 °F (1953)
Degree Days  
Heating Degree Days 1    
Growing Degree Days 14 (Base 50)    
Moisture  
Dew Point 20 °F    
Average Humidity 18    
Maximum Humidity 35    
Minimum Humidity 11    
Precipitation  
Precipitation 0.00 in - - ()
Sea Level Pressure  
Sea Level Pressure 29.91 in    
Wind  
Wind Speed 7 mph ()    
Max Wind Speed 21 mph    
Max Gust Speed 28 mph    
Visibility 10.0 miles    
Events      
Averages and records for this station are not official NWS values.
T = Trace of Precipitation, MM = Missing Value Source: Averaged Metar Reports

Daily Weather History Graph

Daily Weather History Graph

Search for Another Location

Airport or City:

Astronomy

May. 19, 2019 Rise Set
Actual Time 6:02 AM MDT 7:58 PM MDT
Civil Twilight 5:35 AM MDT 8:26 PM MDT
Nautical Twilight 5:01 AM MDT 8:59 PM MDT
Astronomical Twilight 4:26 AM MDT 9:35 PM MDT
Moon 9:01 PM MDT (5/19) 6:48 AM MDT (5/19)
Length of Visible Light 14h 51m
Length of Day
13h 56m
Full, 99% of the Moon is Illuminated
May 19
Full
May 26
Last Quarter
Jun 3
New
Jun 10
First Quarter
Jun 17
Full

Hourly Weather History & Observations

Time (MDT) Temp. Dew Point Humidity Pressure Visibility Wind Dir Wind Speed Gust Speed Precip Events Conditions
12:15 AM 60.8 °F 23.0 °F 23% 29.94 in 10.0 mi SE 4.6 mph - N/A   Clear
12:35 AM 57.2 °F 17.6 °F 21% 29.94 in 10.0 mi SSE 4.6 mph - N/A   Clear
12:55 AM 57.2 °F 19.4 °F 23% 29.94 in 10.0 mi SE 4.6 mph - N/A   Clear
1:15 AM 59.0 °F 14.0 °F 17% 29.93 in 10.0 mi Calm Calm - N/A   Clear
1:35 AM 59.0 °F 14.0 °F 17% 29.94 in 10.0 mi Calm Calm - N/A   Clear
1:55 AM 53.6 °F 12.2 °F 19% 29.93 in 10.0 mi Calm Calm - N/A   Clear
2:15 AM 51.8 °F 10.4 °F 19% 29.93 in 10.0 mi East 4.6 mph - N/A   Clear
2:35 AM 50.0 °F 21.2 °F 32% 29.92 in 10.0 mi SSE 3.5 mph - N/A   Clear
2:55 AM 51.8 °F 15.8 °F 24% 29.92 in 10.0 mi ESE 9.2 mph - N/A   Clear
3:15 AM 51.8 °F 15.8 °F 24% 29.92 in 10.0 mi SSE 6.9 mph - N/A   Clear
3:35 AM 50.0 °F 17.6 °F 28% 29.92 in 10.0 mi South 4.6 mph - N/A   Clear
3:55 AM 48.2 °F 12.2 °F 24% 29.93 in 10.0 mi Calm Calm - N/A   Clear
4:15 AM 53.6 °F 10.4 °F 18% 29.93 in 10.0 mi Calm Calm - N/A   Clear
4:35 AM 55.4 °F 10.4 °F 17% 29.94 in 10.0 mi SSE 4.6 mph - N/A   Clear
4:55 AM 50.0 °F 12.2 °F 22% 29.94 in 10.0 mi Calm Calm - N/A   Clear
5:15 AM 48.2 °F 14.0 °F 25% 29.94 in 10.0 mi SE 3.5 mph - N/A   Clear
5:35 AM 50.0 °F 14.0 °F 24% 29.94 in 10.0 mi SSW 3.5 mph - N/A   Clear
5:55 AM 50.0 °F 14.0 °F 24% 29.95 in 10.0 mi South 5.8 mph - N/A   Clear
6:15 AM 50.0 °F 15.8 °F 26% 29.95 in 10.0 mi SSE 8.1 mph - N/A   Clear
6:35 AM 48.2 °F 15.8 °F 27% 29.97 in 10.0 mi South 5.8 mph - N/A   Clear
6:55 AM 48.2 °F 19.4 °F 32% 29.97 in 10.0 mi SSE 4.6 mph - N/A   Clear
7:15 AM 51.8 °F 24.8 °F 35% 29.97 in 10.0 mi South 5.8 mph - N/A   Clear
7:35 AM 59.0 °F 21.2 °F 23% 29.98 in 10.0 mi South 8.1 mph - N/A   Clear
7:55 AM 62.6 °F 24.8 °F 24% 29.98 in 10.0 mi South 9.2 mph - N/A   Clear
8:15 AM 66.2 °F 21.2 °F 18% 29.99 in 10.0 mi South 12.7 mph - N/A   Clear
8:35 AM 66.2 °F 23.0 °F 19% 29.99 in 10.0 mi South 11.5 mph - N/A   Clear
8:55 AM 68.0 °F 21.2 °F 17% 30.00 in 10.0 mi SSW 10.4 mph - N/A   Clear
9:15 AM 68.0 °F 19.4 °F 16% 30.00 in 10.0 mi South 11.5 mph - N/A   Clear
9:35 AM 69.8 °F 19.4 °F 15% 30.00 in 10.0 mi South 10.4 mph 16.1 mph N/A   Clear
9:55 AM 71.6 °F 19.4 °F 14% 30.00 in 10.0 mi South 10.4 mph - N/A   Clear
10:15 AM 73.4 °F 21.2 °F 14% 30.00 in 10.0 mi South 9.2 mph - N/A   Clear
10:35 AM 73.4 °F 19.4 °F 13% 30.00 in 10.0 mi East 6.9 mph - N/A   Clear
10:55 AM 73.4 °F 17.6 °F 12% 30.00 in 10.0 mi SSW 6.9 mph - N/A   Clear
11:15 AM 75.2 °F 19.4 °F 12% 29.98 in 10.0 mi SW 4.6 mph - N/A   Clear
11:35 AM 75.2 °F 21.2 °F 13% 29.98 in 10.0 mi South 9.2 mph 18.4 mph N/A   Clear
11:55 AM 77.0 °F 19.4 °F 12% 29.98 in 10.0 mi SSW 10.4 mph 16.1 mph N/A   Clear
12:15 PM 75.2 °F 17.6 °F 11% 29.96 in 10.0 mi South 13.8 mph 17.3 mph N/A   Clear
12:35 PM 75.2 °F 19.4 °F 12% 29.95 in 10.0 mi South 11.5 mph 21.9 mph N/A   Clear
12:55 PM 77.0 °F 19.4 °F 12% 29.95 in 10.0 mi SSW 10.4 mph - N/A   Clear
1:15 PM 77.0 °F 19.4 °F 12% 29.95 in 10.0 mi SSW 15.0 mph 19.6 mph N/A   Clear
1:35 PM 77.0 °F 19.4 °F 12% 29.94 in 10.0 mi SSW 13.8 mph 25.3 mph N/A   Clear
1:55 PM 77.0 °F 19.4 °F 12% 29.93 in 10.0 mi South 9.2 mph 24.2 mph N/A   Clear
2:15 PM 77.0 °F 23.0 °F 13% 29.91 in 10.0 mi South 17.3 mph 24.2 mph N/A   Clear
2:35 PM 78.8 °F 21.2 °F 12% 29.91 in 10.0 mi South 16.1 mph 23.0 mph N/A   Clear
2:55 PM 78.8 °F 19.4 °F 11% 29.90 in 10.0 mi South 20.7 mph 26.5 mph N/A   Clear
3:15 PM 77.0 °F 17.6 °F 11% 29.89 in 10.0 mi South 16.1 mph 26.5 mph N/A   Clear
3:35 PM 77.0 °F 19.4 °F 12% 29.87 in 10.0 mi South 16.1 mph 27.6 mph N/A   Clear
3:55 PM 78.8 °F 19.4 °F 11% 29.87 in 10.0 mi South 17.3 mph - N/A   Clear
4:15 PM 80.6 °F 23.0 °F 12% 29.86 in 10.0 mi South 13.8 mph 27.6 mph N/A   Clear
4:35 PM 80.6 °F 21.2 °F 11% 29.86 in 10.0 mi South 17.3 mph 25.3 mph N/A   Clear
4:55 PM 78.8 °F 21.2 °F 12% 29.85 in 10.0 mi South 17.3 mph 26.5 mph N/A   Clear
5:15 PM 78.8 °F 21.2 °F 12% 29.84 in 10.0 mi South 13.8 mph 21.9 mph N/A   Clear
5:35 PM 78.8 °F 21.2 °F 12% 29.83 in 10.0 mi South 17.3 mph - N/A   Clear
5:55 PM 80.6 °F 21.2 °F 11% 29.83 in 10.0 mi South 15.0 mph 18.4 mph N/A   Clear
6:15 PM 78.8 °F 21.2 °F 12% 29.82 in 10.0 mi South 12.7 mph - N/A   Clear
6:35 PM 77.0 °F 21.2 °F 12% 29.81 in 10.0 mi South 12.7 mph - N/A   Clear
7:15 PM 77.0 °F 23.0 °F 13% 29.80 in 10.0 mi South 10.4 mph - N/A   Clear
7:35 PM 75.2 °F 23.0 °F 14% 29.80 in 10.0 mi South 9.2 mph - N/A   Clear
7:55 PM 71.6 °F 23.0 °F 16% 29.79 in 10.0 mi South 9.2 mph - N/A   Clear
8:15 PM 69.8 °F 23.0 °F 17% 29.80 in 10.0 mi South 9.2 mph - N/A   Clear
8:35 PM 66.2 °F 23.0 °F 19% 29.79 in 10.0 mi South 9.2 mph - N/A   Clear
8:55 PM 68.0 °F 24.8 °F 20% 29.79 in 10.0 mi South 10.4 mph - N/A   Clear
9:15 PM 69.8 °F 23.0 °F 17% 29.79 in 10.0 mi South 9.2 mph - N/A   Clear
9:35 PM 71.6 °F 24.8 °F 17% 29.80 in 10.0 mi South 9.2 mph - N/A   Clear
9:55 PM 69.8 °F 24.8 °F 18% 29.80 in 10.0 mi South 9.2 mph - N/A   Clear
10:15 PM 68.0 °F 24.8 °F 20% 29.81 in 10.0 mi South 9.2 mph - N/A   Clear
10:35 PM 68.0 °F 24.8 °F 20% 29.81 in 10.0 mi South 6.9 mph - N/A   Clear
10:55 PM 68.0 °F 24.8 °F 20% 29.81 in 10.0 mi South 8.1 mph - N/A   Clear
11:15 PM 66.2 °F 24.8 °F 21% 29.81 in 10.0 mi SW 4.6 mph - N/A   Clear
11:35 PM 66.2 °F 23.0 °F 19% 29.81 in 10.0 mi Calm Calm - N/A   Clear
11:55 PM 66.2 °F 24.8 °F 21% 29.80 in 10.0 mi SE 4.6 mph - N/A   Clear